Location: ???????
(54.8409°N, 38.8834°E)
Time: 08:11:15
(UTC+00:00)

Daily predictions for brighter satellites

Satellite Brightness Start Highest point End
(mag) Time Altitude Azimuth Time Altitude Azimuth Time Altitude Azimuth
Aureole 3 Rocket 2.7 18:15:09 10° N 18:18:34 84° E 18:22:57 10° SSE
Cosmos 2237 Rocket 2.5 18:13:07 10° SW 18:18:50 77° NW 18:24:35 10° NNE
Resurs 01 Rocket 3.9 18:15:19 10° SW 18:18:51 23° W 18:22:25 10° NW
GEOS 3 Rocket 4.2 18:20:02 10° ENE 18:24:44 34° ESE 18:29:21 10° S
Cosmos 1980 4.2 18:21:22 10° SW 18:26:59 66° NW 18:32:38 10° NNE
Okean 3 Rocket 3.9 18:24:29 10° N 18:28:51 53° ENE 18:33:07 10° SSE
Cosmos 923 Rocket 4.0 18:23:55 10° SSW 18:29:14 79° ESE 18:34:36 10° NNE
Cosmos 1378 2.9 18:26:35 10° SSW 18:29:52 81° WNW 18:33:11 10° N
USA 234 3.5 18:23:29 10° E 18:30:02 75° N 18:36:34 10° W
SPOT 5 3.5 18:25:32 10° S 18:30:03 50° W 18:34:24 10° NNW
Cosmos 921 Rocket 3.8 18:26:17 10° SSE 18:30:22 36° ESE 18:34:29 10° NE
Cosmos 1943 4.4 18:31:29 10° SSE 18:35:51 23° ESE 18:40:12 10° NE
ARGOS Delta rocket 4.1 18:31:50 10° S 18:36:58 76° WSW 18:41:51 10° NNW
Landsat 5 4.2 18:35:42 10° NE 18:39:03 29° E 18:42:22 10° SSE
Landsat 4 3.9 18:35:38 10° S 18:39:06 60° WSW 18:42:36 10° NNW
USA 306 2.6 18:35:51 10° W 18:39:36 77° S 18:43:31 10° E
Cosmos 1656 Rocket 3.9 18:34:53 10° NW 18:40:17 64° WSW 18:45:42 10° SSE
ATLAS 2AS CENTAUR R/B 3.0 18:33:12 10° SW 18:40:34 83° NW 18:47:39 10° NE
Terra 2.0 18:36:15 10° S 18:40:57 71° WSW 18:45:41 10° NNW
Okean O Rocket 4.2 18:38:05 10° SW 18:41:02 17° W 18:43:59 10° NW
USA 59 Rocket 1.1 18:40:41 10° NW 18:43:46 33° NNE 18:47:39 10° E
Meteor 1-14 Rocket 4.4 18:38:35 10° NNW 18:44:24 89° ENE 18:50:19 10° SSE
ERS-1 Rocket 3.5 18:40:22 10° S 18:45:19 59° WSW 18:50:19 10° NNW
USA 281 3.3 18:41:02 10° SSE 18:47:38 80° WSW 18:54:16 10° NNW
Meteor 1-11 Rocket 4.1 18:42:19 10° N 18:47:50 56° ENE 18:53:15 11° SSE
SPOT 3 Rocket 3.7 18:44:08 10° SSE 18:49:17 76° WSW 18:54:28 10° NNW
Cosmos 1733 4.5 18:46:22 10° N 18:49:22 25° ENE 18:52:13 11° SE
Cosmos 1943 Rocket 4.4 18:47:42 10° WNW 18:51:35 19° W 18:55:28 10° SW
Cosmos 1842 Rocket 3.9 18:47:59 10° SSE 18:52:16 49° E 18:56:33 10° NNE
Lacrosse 4 Rocket 3.5 18:49:47 10° NNW 18:52:52 21° NNE 18:55:59 10° ENE
H-2A R/B 4.2 18:51:07 10° ESE 18:54:19 22° ENE 18:57:36 10° N
NOSS 2-1 (D) 4.3 18:53:05 10° NW 18:56:17 39° NNE 19:00:18 10° E
USA 307 1.2 18:57:07 10° W 18:57:34 21° WSW 18:57:34 21° WSW
Cosmos 1331 Rocket 4.1 18:52:54 10° NNW 18:58:11 71° ENE 19:02:58 12° SE
Cosmos 1110 Rocket 4.1 18:54:37 10° NNW 18:59:58 78° ENE 19:04:49 13° SSE
Cosmos 2279 Rocket 4.0 18:53:55 10° N 19:00:10 84° E 19:06:19 10° SSE
Cosmos 1634 Rocket 4.3 18:54:41 10° NNW 19:00:59 71° W 19:07:11 10° S
Cosmos 1743 3.5 18:59:36 10° NNW 19:03:05 44° W 19:06:31 10° SSW
ARIANE 5 R/B 3.5 19:01:09 11° SE 19:04:54 37° ENE 19:08:52 10° N
USA 229 DEB 4.2 18:59:58 10° NW 19:07:10 62° SW 19:14:21 13° SSE
USA 229 4.2 19:00:05 10° NW 19:07:16 63° SW 19:14:28 13° SSE
ISS -3.1 19:05:23 10° W 19:08:30 38° SSW 19:10:58 15° SE
Cosmos 1340 Rocket 4.3 19:06:59 13° SE 19:09:26 21° E 19:12:31 10° NE
Cosmos 2112 Rocket 4.2 19:06:20 10° SSW 19:11:41 79° WNW 19:17:00 10° NNE
Cosmos 1680 Rocket 4.1 19:16:48 10° SW 19:22:02 60° WNW 19:27:16 10° NNE
Cosmos 1726 2.2 19:20:28 10° NNW 19:23:33 54° W 19:26:04 14° S
Meteor 2-6 Rocket 4.3 19:18:14 10° SSW 19:23:51 80° WNW 19:29:22 10° NNE
Cosmos 1805 4.1 19:25:06 10° N 19:28:35 36° ENE 19:31:06 16° SE
Cosmos 1743 Rocket 3.6 19:26:03 10° N 19:30:27 71° ENE 19:33:46 17° SSE
NOSS 2-1 (C) 3.6 19:28:08 10° NW 19:31:33 60° NE 19:35:57 10° ESE
Kosmos-1783 4.2 19:30:39 10° W 19:32:04 29° NNW 19:34:01 10° NE
Sich 1 3.0 19:31:27 10° N 19:35:50 85° ENE 19:39:07 17° SSE
SL-16 R/B 2.7 19:30:18 10° SW 19:35:56 65° NW 19:41:38 10° NNE
MetOp-A 4.4 19:33:25 12° S 19:37:19 50° W 19:42:01 10° NNW
Cosmos 1603 4.2 19:33:53 14° S 19:38:23 41° ESE 19:43:43 10° NE
Lacrosse 5 4.1 19:38:35 10° W 19:40:37 12° WSW 19:42:39 10° SW
Cosmos 1452 Rocket 4.0 19:37:16 10° NNW 19:42:23 54° WSW 19:46:28 16° S
Cosmos 1536 3.4 19:40:09 10° NNW 19:43:55 49° W 19:46:58 15° SSW
Cosmos 1975 3.5 19:40:26 10° N 19:44:14 43° ENE 19:46:47 18° SE
Meteor 1-27 Rocket 3.8 19:39:56 15° S 19:44:32 64° E 19:50:01 10° NNE
Spot 1 4.4 19:40:41 10° N 19:44:43 62° WNW 19:48:44 10° SSW
Cosmos 1408 Rocket 4.1 19:41:10 10° NNW 19:45:31 53° W 19:49:11 14° S
Cosmos 2369 Rocket 3.5 19:41:08 10° NW 19:45:57 30° WSW 19:50:37 11° SSW
Lacrosse 5 rocket 1.4 19:44:46 10° WSW 19:49:03 87° NNW 19:53:14 10° ENE
Cosmos 1340 2.3 19:50:00 10° NNW 19:53:25 84° WSW 19:55:25 23° S
Okean 1 3.2 19:50:57 16° SSW 19:53:59 87° WNW 19:57:53 10° N
PSLV R/B 4.4 19:50:06 10° NNE 19:54:03 45° E 19:56:27 21° SSE
Cosmos 1626 3.5 19:59:00 17° ESE 20:00:08 20° E 20:02:37 10° NE
GEOS 3 Rocket 3.9 19:57:53 10° NE 20:03:06 74° NW 20:08:14 10° WSW
BREEZE-M DEB (TANK) 3.5 20:02:09 10° SW 20:07:54 - ESE 20:02:58 18° SW
Meteor 2-17 Rocket 4.4 20:06:28 15° S 20:11:38 89° ESE 20:17:44 10° NNE
USA 234 3.2 20:06:28 10° ESE 20:13:04 84° SSW 20:19:39 10° WNW
USA 306 3.1 20:09:31 10° W 20:13:12 41° SSW 20:15:01 24° SSE
SL-8 R/B 4.4 20:14:47 10° SW 20:18:54 29° SSE 20:23:01 10° ESE
Cosmos 1943 3.3 20:13:35 10° SW 20:19:17 82° NW 20:25:00 10° NNE
Terra 4.3 20:17:32 10° WSW 20:19:26 12° W 20:21:21 10° WNW
Cosmos 1328 Rocket 4.1 20:19:15 23° SSE 20:21:37 44° E 20:25:45 10° NNE
Spot 4 3.8 20:19:23 22° SSE 20:22:30 89° ENE 20:27:18 10° NNW
Meteor 2-4 Rocket 4.0 20:18:25 20° S 20:22:31 61° E 20:28:23 10° NNE
Cosmos 1733 4.3 20:20:54 10° NNW 20:24:04 32° W 20:26:10 17° SW
IRIDIUM 104 4.4 20:18:51 10° N 20:24:06 76° W 20:27:45 20° S
ALOS 2 2.7 20:21:27 22° SSE 20:24:13 69° ENE 20:28:37 10° N
Cosmos 1470 Rocket 4.0 20:20:27 10° N 20:24:52 55° ENE 20:27:38 21° SE
Cosmos 1048 Rocket 4.5 20:20:11 10° SW 20:25:17 60° WNW 20:30:23 10° NNE
H-2A R/B 2.7 20:26:30 23° S 20:28:55 60° WSW 20:33:06 10° NNW
Cosmos 1092 Rocket 4.0 20:25:48 19° S 20:30:22 74° E 20:36:42 10° NNE
Lacrosse 4 Rocket 1.5 20:27:45 10° NW 20:31:49 72° NE 20:34:40 19° SE
Cosmos 1428 Rocket 4.5 20:27:23 18° S 20:32:11 89° WNW 20:38:20 10° N
ATLAS 2AS CENTAUR R/B 4.0 20:25:24 10° W 20:32:18 45° NNW 20:38:55 10° ENE
USA 59 Rocket 0.1 20:29:57 10° NW 20:33:36 59° SW 20:36:26 22° SSE
Cosmos 1656 3.6 20:28:12 10° NNW 20:33:41 86° ENE 20:37:39 19° SE
NOSS 2-1 (E) 3.6 20:30:49 10° NW 20:34:27 58° SW 20:37:17 22° SSE
Cosmos 1666 Rocket 3.6 20:30:28 10° NNW 20:34:49 72° W 20:37:19 24° S
Cosmos 1151 Rocket 3.2 20:31:54 19° SSW 20:35:00 69° WNW 20:39:23 10° N
Cosmos 1633 Rocket 3.1 20:34:09 10° NNW 20:38:35 79° W 20:41:08 25° S
ARIANE 5 R/B 3.7 20:38:36 17° SSW 20:41:19 34° W 20:45:18 10° NNW
Cosmos 1992 Rocket 4.0 20:37:12 10° NNW 20:42:26 73° WSW 20:45:43 23° SSE
Cosmos 1697 Rocket 3.3 20:38:37 10° NNW 20:44:11 54° NE 20:49:36 10° SE
ISS -1.6 20:42:31 10° WSW 20:43:46 14° SW 20:43:46 14° SW
Cosmos 1340 Rocket 3.6 20:42:10 16° SW 20:45:13 48° WNW 20:49:08 10° N
CZ-2C R/B 4.3 20:41:02 10° N 20:45:30 54° WNW 20:49:14 14° SW
NOSS 2-1 (D) 3.9 20:42:29 10° WNW 20:46:02 46° SW 20:48:21 25° SSE
H-2A R/B 3.3 20:42:58 10° NNE 20:46:56 31° E 20:49:05 20° SE
Cosmos 1980 Rocket 3.5 20:44:09 10° NNW 20:49:29 37° NE 20:54:46 10° ESE
Cosmos 1842 4.4 20:48:05 21° SE 20:49:37 29° E 20:52:52 10° NNE
Cosmos 1933 Rocket 4.0 20:46:03 10° N 20:50:18 52° ENE 20:52:58 21° SE
Cosmos 614 Rocket 4.0 20:47:59 22° S 20:51:20 67° ESE 20:56:33 10° NNE
Cosmos 1908 4.3 20:49:46 10° N 20:53:04 33° ENE 20:55:06 19° SE
Cosmos 1766 3.1 20:50:45 10° NNW 20:54:29 82° W 20:56:16 30° S
Cosmos 1470 3.0 20:54:38 10° N 20:58:19 55° ENE 21:00:14 25° SE
Cosmos 1707 3.9 21:00:02 21° SE 21:01:34 30° E 21:04:48 10° NNE
Cosmos 2360 4.2 21:04:13 10° NW 21:09:58 85° WSW 21:14:09 19° SSE
KORONAS-FOTON 4.4 21:08:47 27° SSE 21:10:19 42° E 21:13:49 10° NNE
SL-16 R/B 4.5 21:10:15 10° NNW 21:14:51 24° NNE 21:19:24 10° E
NOSS 3-3 (A) 4.5 21:12:17 23° S 21:15:15 39° ESE 21:21:12 10° NE
USA 267 3.4 21:11:16 10° ENE 21:17:38 52° SE 21:23:24 13° SW
Cosmos 1603 4.5 21:16:55 10° SW 21:22:26 51° NW 21:28:03 10° NNE
Orbus 7S? 4.3 21:24:43 22° SE 21:24:43 22° SE 21:26:40 10° E
Cosmos 1269 Rocket 4.0 21:24:14 23° SSW 21:27:30 72° ESE 21:32:47 10° NNE
Lacrosse 5 rocket 1.8 21:23:26 10° W 21:27:39 64° N 21:31:43 10° E
NOSS 3-4 (A) 3.8 21:21:11 10° NW 21:27:44 82° NE 21:35:24 10° SE
NOSS 3-4 (C) 3.8 21:21:15 10° NW 21:27:48 82° NE 21:35:27 10° SE
Helios 1A Rocket 4.2 21:24:57 12° SE 21:28:04 33° ENE 21:31:35 10° N
Cosmos 1140 Rocket 4.4 21:25:30 21° SSE 21:28:19 36° ESE 21:33:05 10° NE
Cosmos 2082 Rocket 4.2 21:27:10 10° SE 21:30:23 15° E 21:33:36 10° ENE
Cosmos 1626 3.1 21:31:50 20° WSW 21:33:32 32° WNW 21:36:32 10° N
PSLV R/B 3.7 21:29:03 10° NNE 21:33:43 90° NNE 21:36:22 25° SSW
Cosmos 1674 2.4 21:34:14 32° SSW 21:35:44 83° W 21:39:16 10° N
Meteor 2-10 Rocket 4.3 21:30:32 10° N 21:36:16 57° ENE 21:41:11 14° SSE
Cosmos 2315 Rocket 4.1 21:31:42 10° N 21:37:59 75° ENE 21:42:48 18° SSE
Cosmos 1833 Rocket 3.2 21:35:30 23° S 21:38:43 47° ESE 21:44:05 10° NE
S3M 4.1 21:32:55 10° NNW 21:39:19 82° W 21:43:47 21° S
NOSS 3-3 (C) 4.1 21:38:41 22° SSW 21:42:09 52° SE 21:48:31 10° NE
Cosmos 1300 3.7 21:39:44 10° N 21:43:06 37° ENE 21:45:31 16° SE
Cosmos 44 Rocket 3.2 21:38:21 10° NW 21:43:22 79° SW 21:47:31 14° SE
BREEZE-M DEB (TANK) 3.9 21:33:21 10° SW 21:44:49 41° S 21:48:29 10° E
SL-24 R/B 4.4 21:42:14 10° NNE 21:46:36 69° WNW 21:49:34 22° SSW
Cosmos 2285 Rocket 4.5 21:44:24 21° S 21:48:28 50° ESE 21:54:33 10° NE
GP-B 3.0 21:51:36 10° N 21:56:02 87° W 21:58:36 25° S
Cosmos 1763 Rocket 3.8 21:51:01 10° NNW 21:56:21 71° ENE 22:01:25 11° SE
USA 234 3.7 21:51:34 15° SSE 21:56:36 41° SW 22:02:46 10° WNW
Cosmos 1515 Rocket 4.1 21:54:34 21° SW 21:57:13 51° WNW 22:01:28 10° N
CZ-2D R/B 4.4 21:56:04 10° NE 21:59:12 15° E 22:02:20 10° ESE
SL-8 R/B 4.1 21:56:15 10° WSW 22:00:40 39° S 22:05:07 10° ESE
ALOS 2 4.5 21:58:50 14° SW 22:01:01 19° W 22:04:11 10° NW
Cosmos 1400 Rocket 3.8 21:59:47 19° SSE 22:02:04 36° E 22:05:47 10° NNE
Meteor 1-13 Rocket 4.4 21:58:56 22° S 22:03:00 84° ESE 22:08:57 10° NNE
Cosmos 1869 Rocket 3.8 21:59:17 10° NNW 22:03:32 56° W 22:05:54 25° SSW
Cosmos 1733 Rocket 3.2 22:02:31 10° N 22:06:51 68° ENE 22:09:57 18° SSE
Meteor 1-23 Rocket 4.5 22:04:57 20° S 22:08:48 61° E 22:14:21 10° NNE
Lacrosse 4 Rocket 2.9 22:06:44 10° WNW 22:09:41 20° WSW 22:10:34 18° SW
BREEZE-M DEB (TANK) 4.5 22:07:51 21° SW 22:10:21 45° SSE 22:21:12 10° E
Cosmos 1655 Rocket 4.1 22:07:35 20° S 22:12:08 85° E 22:18:33 10° NNE
Aureole 3 4.3 22:10:46 17° SE 22:12:17 25° E 22:14:49 10° NE
Cosmos 1818 3.6 22:13:02 18° SW 22:17:14 84° SE 22:22:46 10° NE
Cosmos 2322 Rocket 4.0 22:12:13 10° NNW 22:17:17 32° NE 22:22:21 10° E
Cosmos 1346 Rocket 3.3 22:13:59 10° N 22:17:49 55° ENE 22:20:57 15° SSE
H-2A R/B 3.0 22:18:33 10° N 22:22:45 43° WNW 22:25:53 17° SW
USA 59 Rocket 2.3 22:21:22 10° W 22:22:58 12° WSW 22:22:59 12° WSW
Cosmos 540 Rocket 3.5 22:19:02 10° NNW 22:24:15 84° ENE 22:29:25 10° SSE
Resurs 1-4 Rocket 3.9 22:20:12 10° NE 22:24:20 23° E 22:28:25 10° SE
ATLAS 2AS CENTAUR R/B 4.0 22:17:52 10° WNW 22:24:37 44° NNE 22:31:04 10° E
Cosmos 1842 4.5 22:22:35 17° WSW 22:24:49 30° WNW 22:28:08 10° N
Meteor 1-12 Rocket 4.4 22:19:56 10° NNW 22:25:44 67° W 22:30:07 18° S
Cosmos 1697 Rocket 3.4 22:22:50 10° NW 22:28:00 37° WSW 22:31:17 20° SSW
APEX 2.2 22:28:03 38° WSW 22:28:36 53° NW 22:30:45 10° NNE
OPS 6432 4.1 22:25:40 10° NW 22:28:53 87° SW 22:31:59 10° SE
Cosmos 1441 Rocket 3.9 22:25:56 10° NNW 22:29:14 34° W 22:30:46 23° SW
CZ-2C R/B 3.7 22:24:56 10° SE 22:29:45 42° ENE 22:34:37 10° N
SL-14 R/B 3.4 22:27:37 23° S 22:29:57 68° E 22:33:48 10° NNE
Cosmos 1953 3.4 22:27:24 10° N 22:31:10 41° ENE 22:34:53 10° SE
Cosmos 1980 Rocket 2.3 22:28:11 10° NW 22:33:50 62° WSW 22:38:50 13° SSE
COSMOS 2406 4.3 22:30:09 15° SSE 22:34:19 35° ESE 22:39:29 10° NE
Cosmos 1707 4.0 22:34:21 16° WSW 22:36:35 29° WNW 22:39:50 10° N
Cosmos 2369 3.7 22:31:44 10° NW 22:37:27 72° WSW 22:43:08 10° SSE
Cosmos 2266 Rocket 4.5 22:35:15 17° SW 22:39:56 50° WNW 22:46:02 10° N
SL-16 R/B 3.9 22:34:58 10° ESE 22:40:41 39° ENE 22:46:27 10° N
Cosmos 1758 3.6 22:38:10 10° NNW 22:41:52 48° W 22:44:00 22° SSW
Cosmos 1862 Rocket 3.6 22:38:55 20° S 22:41:52 73° E 22:46:12 10° NNE
Meteor 1-16 Rocket 4.3 22:37:46 10° NNW 22:43:23 86° ENE 22:48:56 11° SSE
Cosmos 1607 4.1 22:39:11 18° SSW 22:44:08 68° SE 22:50:36 10° NE
Meteor 1-21 4.3 22:45:11 17° S 22:49:36 79° ESE 22:55:22 10° NNE
SL-16 R/B 2.6 22:54:17 10° NNW 22:59:59 68° NE 23:05:38 10° SE
USA 267 3.3 22:54:26 10° ENE 23:01:01 87° NNW 23:07:35 10° WSW
Cosmos 1455 2.2 22:57:37 10° N 23:01:04 65° ENE 23:04:23 11° SSE
Helios 1A Rocket 3.8 23:00:20 19° SSW 23:02:26 31° W 23:05:57 10° NNW
Cosmos 1315 Rocket 4.0 23:00:48 10° SSE 23:04:15 35° E 23:07:50 10° NNE
Cosmos 2228 Rocket 3.5 23:01:24 18° SSW 23:04:34 55° WNW 23:09:01 10° N
H-2A R/B 4.1 23:01:06 10° NNE 23:05:00 47° E 23:08:22 13° S
NOSS 3-3 (A) 4.3 23:00:00 10° WSW 23:05:47 69° NNW 23:12:43 10° NE
Lacrosse 5 rocket 1.2 23:02:00 10° WNW 23:06:10 79° SSW 23:10:09 10° ESE
Cosmos 1707 Rocket 3.9 23:03:45 18° SSW 23:06:57 58° WNW 23:11:22 10° N
Cosmos 1140 Rocket 4.2 23:05:26 13° SW 23:09:58 48° NW 23:15:03 10° NNE
Cosmos 841 Rocket 3.5 23:04:44 10° NNW 23:09:59 90° WSW 23:15:15 10° SSE
Cosmos 2251 Rocket 3.7 23:05:57 16° SW 23:10:13 68° WNW 23:15:31 10° NNE
Meteor 1-4 Rocket 3.2 23:09:09 13° SSE 23:11:28 36° E 23:14:16 10° NNE
Cosmos 2237 4.3 23:07:14 10° NNW 23:13:01 87° NE 23:18:46 10° SSE
Cosmos 2082 Rocket 2.4 23:08:47 16° SSW 23:13:29 71° ESE 23:19:12 10° NE
Cosmos 676 Rocket 4.3 23:12:40 14° S 23:17:10 63° ESE 23:22:27 10° NNE
Cosmos 1300 4.1 23:14:53 10° NW 23:17:41 22° W 23:19:33 15° SW
NOSS 3-4 (A) 4.4 23:12:14 10° WNW 23:18:22 36° WSW 23:25:19 10° S
NOSS 3-4 (C) 4.4 23:12:17 10° WNW 23:18:26 37° WSW 23:25:23 10° S
Cosmos 2219 Rocket 3.9 23:14:11 10° NNW 23:19:24 36° NE 23:24:36 10° ESE
ADEOS II 3.2 23:14:48 10° NNE 23:19:42 38° E 23:24:34 10° SSE
Cosmos 1833 Rocket 3.5 23:17:21 10° WSW 23:22:43 45° NW 23:28:08 10° NNE
Cosmos 407 Rocket 4.0 23:18:38 13° SW 23:23:16 53° NW 23:28:27 10° NNE
Cosmos 1954 Rocket 4.1 23:20:53 14° SSW 23:25:26 83° ESE 23:30:48 10° NNE
Cosmos 1190 Rocket 4.1 23:21:55 14° SSW 23:26:25 78° WNW 23:31:46 10° NNE
Cosmos 2360 Rocket 2.9 23:20:47 10° NNW 23:26:26 58° NE 23:32:02 10° SE
MOZ.5/SAFIR/RUBIN 5/SL-8 4.4 23:24:18 14° SSW 23:28:03 39° W 23:32:30 10° NNW
Cosmos 1782 Rocket 3.6 23:24:43 10° N 23:29:10 82° ENE 23:33:32 10° SSE
IDEFIX/ARIANE 42P 2.7 23:24:58 10° NNE 23:30:16 81° ESE 23:35:21 11° SSW
Cosmos 1908 Rocket 3.8 23:25:59 10° NNW 23:30:22 57° W 23:34:34 11° S
Okean 1-7 3.0 23:26:56 14° SSW 23:30:35 76° WNW 23:34:55 10° N
Okean 2 3.3 23:28:57 14° SSW 23:32:20 78° WNW 23:36:20 10° N
SJ 16-02 3.7 23:31:13 10° SE 23:34:04 17° E 23:36:57 10° NE
CZ-2C R/B 3.8 23:31:20 10° NNE 23:37:06 59° E 23:42:48 10° S
Cosmos 1400 Rocket 4.1 23:34:57 11° SW 23:38:11 29° WNW 23:41:42 10° N
Cosmos 1408 4.0 23:36:38 10° SSE 23:39:11 25° E 23:41:44 10° NE
Cosmos 1745 Rocket 4.1 23:33:19 10° S 23:39:31 89° E 23:45:52 10° NNE
Cosmos 2278 3.8 23:34:32 10° NW 23:40:10 59° WSW 23:45:46 10° SSE
CZ-2D R/B 2.4 23:34:40 10° NNE 23:40:11 74° ESE 23:45:38 10° S
ALOS 3.7 23:37:48 10° NNE 23:42:01 33° E 23:46:11 10° SSE
Cosmos 2333 Rocket 2.6 23:42:21 10° NNW 23:48:05 72° NE 23:53:48 10° SE
COBE Rocket 4.0 23:44:34 10° N 23:49:21 68° WNW 23:54:15 10° SSW
Aureole 3 4.5 23:50:46 10° WSW 23:53:03 19° WNW 23:55:19 10° NNW
Cosmos 1346 Rocket 4.5 23:50:37 10° NW 23:53:18 18° W 23:55:55 10° SW
FENGYUN 3A 4.1 23:48:06 10° NNE 23:53:28 63° ESE 23:58:47 10° S
Cosmos 2242 Rocket 4.2 23:50:06 10° S 23:54:25 56° E 23:58:49 10° NNE
